Heure de lever du soleil au 23-03-2017 / 81 ° de l'année/ semaine 1206 h 49 Heure de coucher du soleil au 23-03-2017 / 81 ° de l'année/ semaine 1219 h 06

Compte Facebook Association Météo Centre     Compte Twitter Association Météo Centre - @AssoMétéoCentre     Chaîne Youtube Association Météo Centre     Bouton contact Association Météo Centre 

Gif alerte météo

Choix de la station :
Période à consulter :
Aujourd'hui


 

Conditions météo à Abbeville - Altitude 77m

  

Date du relevé23/03/2017 à 20:00
Visibilité18km
Vent9 km/h ENE
Température12.1 °C
Humidité69.1 %
Point de rosée6.6 °C
Pression absolue1005.8 hPa
Pression relative1014.5 hPa
Variation pression+2.3 hPa en baisse ou stationnaire, puis en hausse plus rapide


Historique météo des dernières 24 heures à Abbeville


Date - Heure Base des nuages Visibilité Nébulosité Vent Température Humidité Point rosée Pression Précipitations Temps
23/03 20:00 18km 9 km/h ENE 12.1 °C 69.1 % 6.6 °C 1014.5 hPa
23/03 19:00 19km 11 km/h ENE 12.6 °C 65.9 % 6.4 °C 1013.4 hPa 0 mm/12h
23/03 18:00 19km 13 km/h ENE 13 °C 65.1 % 6.6 °C 1012.6 hPa
23/03 17:00 600 à 1000m 12km 8/8 13 km/h ENE 13.3 °C 66.1 % 7.1 °C 1012.1 hPa
23/03 16:00 600 à 1000m 14km 8/8 15 km/h ENE 13.2 °C 65.2 % 6.8 °C 1011.9 hPa
23/03 15:00 600 à 1000m 12km 7/8 13 km/h ENE 12.8 °C 66.9 % 6.8 °C 1011.7 hPa
23/03 14:00 600 à 1000m 12km 5/8 13 km/h ENE 12.2 °C 66.8 % 6.2 °C 1011.4 hPa
23/03 13:00 600 à 1000m 12km 7/8 15 km/h ENE 11.3 °C 70.8 % 6.2 °C 1011.5 hPa 0 mm/6h
23/03 12:00 600 à 1000m 15km 8/8 15 km/h ENE 10.4 °C 70.2 % 5.2 °C 1011.2 hPa
23/03 11:00 2000 à 2500m 17km 7/8 15 km/h ENE 9.6 °C 70 % 4.4 °C 1011.5 hPa
23/03 10:00 2000 à 2500m 14km 7/8 11 km/h ENE 7.5 °C 80.7 % 4.4 °C 1011.3 hPa
23/03 09:00 2000 à 2500m 14km 7/8 9 km/h ENE 6.1 °C 84 % 3.6 °C 1011.3 hPa
23/03 08:00 2000 à 2500m 15km 8/8 9 km/h ENE 5.4 °C 82.7 % 2.7 °C 1011.1 hPa
23/03 07:00 15km 6/8 9 km/h E 5 °C 86.3 % 2.9 °C 1010.2 hPa 0.6 mm/12h
23/03 06:00 2000 à 2500m 15km 8/8 6 km/h ENE 5.2 °C 85.7 % 3 °C 1010 hPa
23/03 05:00 20km 6 km/h E 5.2 °C 85.7 % 3 °C 1010.1 hPa
23/03 04:00 20km 6 km/h E 5.8 °C 82.8 % 3.1 °C 1010.2 hPa
23/03 03:00 20km 7 km/h ESE 6.5 °C 78.9 % 3.1 °C 1010 hPa
23/03 02:00 20km 9 km/h E 6.9 °C 78.9 % 3.5 °C 1010.2 hPa
23/03 01:00 20km 6 km/h ESE 7.1 °C 80.1 % 3.9 °C 1010.6 hPa 0.6 mm/6h
23/03 00:00 20km 6 km/h ESE 6.9 °C 80.1 % 3.7 °C 1010.1 hPa
22/03 23:00 18km 6 km/h NE 6.2 °C 92 % 5 °C 1010 hPa
22/03 22:00 17km 4 km/h NNE 6 °C 93.9 % 5.1 °C 1010.2 hPa
22/03 21:00 20km 4 km/h N 6.6 °C 92.7 % 5.5 °C 1010.3 hPa

L'association Météo Centre n'est pas responsable de la mise à jour de ces données.

Météo-Centre.fr depuis 2008
Nos informations ne doivent jamais servir à la protection des biens et des personnes. Elles n'engagent pas la responsabilité de l'association Météo Centre.
Contact - Haut de page - Partenaires - Mentions légales